Flag for Kazakhstan Weather past 2 weeks in Aqtobe, Kazakhstan

Now
9 °F

Clear.


Feels Like: 9 °F
Forecast: 13 / 24 °F
Wind: 1 mph from Southeast

Location: Aktjubinsk

Current Time: Mar 7, 2015 at 3:10:01 AM

Latest Report: Mar 7, 2015 at 2:30 AM


Visibility: 5 mi

Pressure: 30.33 "Hg

Humidity: 92%

Dew point: 7 °F

Location of AqtobeLocation

Historic Weather in Aqtobe — Graph

°F

Aqtobe temperature yesterday

Maximum temperature yesterday: 23 °F (at 2:30 PM)
Minimum temperature yesterday: 16 °F (at 12:00 AM)
Average temperature yesterday: 20 °F

Past Weeks' High & Low Weather Summary

 TemperatureHumidityPressure
High32 °F (Feb 25, 5:00 PM)100% (Feb 23, 1:30 AM)30.74 "Hg (Feb 23, 1:30 AM)
Low-13 °F (Feb 21, 6:00 AM)63% (Mar 3, 1:30 PM)29.95 "Hg (Feb 20, 2:00 AM)
Average11 °F86%30.37 "Hg
* Reported Feb 20 1:00 AM — Mar 7 1:30 AM, Aqtobe, Weather by CustomWeather, © 2015

Note: Actual official high and low records may vary slightly from our data, if they occured in-between our weather recording intervals... More about our weather records

Advertising

Aqtobe weather history for previous 24 hours

 ConditionsComfort  
Time TempWeatherWind HumidityBarometerVisibility
1:30 AM
Sat, Mar 7
12 °FClear.3 mph92%30.33 "Hg10 mi
1:00 AM10 °FClear.3 mph92%30.33 "Hg10 mi
12:30 AM16 °FClear.3 mph86%30.33 "Hg10 mi
12:00 AM16 °FClear.3 mph86%30.33 "Hg10 mi
11:30 PM
Fri, Mar 6
18 °FMostly cloudy.3 mph86%30.33 "HgN/A
11:00 PM18 °FMostly cloudy.6 mph86%30.33 "HgN/A
10:30 PM19 °FMostly cloudy.6 mph86%30.33 "HgN/A
10:00 PM19 °FMostly cloudy.6 mph86%30.33 "HgN/A
9:30 PM21 °FOvercast.1 mph86%30.33 "HgN/A
9:00 PM23 °FOvercast.3 mph80%30.33 "HgN/A
8:30 PM23 °FOvercast.6 mph80%30.33 "HgN/A
8:00 PM23 °FOvercast.1 mph80%30.33 "HgN/A
7:30 PM23 °FOvercast.1 mph80%30.33 "HgN/A
7:00 PM23 °FOvercast.3 mph80%30.30 "HgN/A
6:30 PM23 °FOvercast.3 mph80%30.30 "HgN/A
6:00 PM23 °FOvercast.3 mph80%30.30 "HgN/A
5:30 PM23 °FOvercast.3 mph80%30.30 "HgN/A
5:00 PM23 °FOvercast.3 mph80%30.30 "HgN/A
4:30 PM23 °FOvercast.3 mph80%30.30 "HgN/A
4:00 PM23 °FOvercast.3 mph80%30.30 "HgN/A
3:30 PM23 °FOvercast.3 mph74%30.30 "HgN/A
3:00 PM23 °FOvercast.6 mph74%30.30 "HgN/A
2:30 PM23 °FOvercast.6 mph74%30.30 "HgN/A
2:00 PM21 °FOvercast.6 mph80%30.30 "HgN/A
1:30 PM21 °FOvercast.6 mph80%30.30 "HgN/A
1:00 PM21 °FOvercast.6 mph80%30.30 "HgN/A
12:30 PM21 °FOvercast.6 mph80%30.30 "HgN/A
12:00 PM19 °FOvercast.8 mph79%30.30 "HgN/A
11:30 AM19 °FOvercast.8 mph79%30.30 "HgN/A
11:00 AM19 °FOvercast.8 mph79%30.30 "HgN/A
10:30 AM19 °FOvercast.8 mph79%30.30 "HgN/A
10:00 AM19 °FOvercast.8 mph79%30.27 "HgN/A
9:30 AM18 °FOvercast.6 mph86%30.27 "HgN/A
9:00 AM18 °FOvercast.8 mph86%30.27 "HgN/A
8:30 AM18 °FOvercast.6 mph93%30.27 "HgN/A
8:00 AM18 °FOvercast.3 mph86%30.27 "HgN/A
7:30 AM18 °FOvercast.3 mph86%30.24 "HgN/A
7:00 AM18 °FOvercast.1 mph86%30.24 "HgN/A
6:30 AM18 °FOvercast.3 mph86%30.24 "HgN/A
6:00 AM18 °FOvercast.6 mph86%30.24 "HgN/A
5:30 AM18 °FOvercast.3 mph86%30.24 "HgN/A
5:00 AM18 °FOvercast.6 mph86%30.24 "HgN/A
4:30 AM18 °FOvercast.3 mph86%30.24 "HgN/A
4:00 AM18 °FOvercast.6 mph86%30.24 "HgN/A
3:30 AM18 °FOvercast.6 mph86%30.24 "HgN/A
3:00 AM18 °FOvercast.6 mph86%30.24 "HgN/A
Weather by CustomWeather, © 2015

See weather overviewHow to use our weather pages